Ломбовож

Россия / Ханты-Мансийский автономный округ - Югра     63°48′38″N   61°28′30″E
темп.,
°C
ветер,
м/с
пор.,
м/с
влажн.,
%
обл.,
%
осадки,
мм/ч
давл.,
гПа
погр.,
м
9 марта, вт
вт923:00−28св00980 0.0 100619
02:00−28ссв1110061 0.0 100619
05:00−29ссв1110079 0.1 100719
08:00−28ссв1199100 0.1 100820
11:00−25с129599 0.1 1008245
14:00−22с1292100 0.0 1009350
17:00−23ссз129697 0.1 1010116
20:00−27ссз129687 0.0 101219
10 марта, ср
ср1023:00−28ссз129988 0.0 101419
02:00−30сз12100100 0.0 101519
05:00−33сз119795 0.1 101519
08:00−33юз119334 0.0 101519
11:00−27ююз128963 0.0 1014212
14:00−23ю238684 0.0 1014367
17:00−22ююв249385 0.0 1012207
20:00−24юв2295100 0.0 101250
11 марта, чт
чт1123:00−24вюв2299100 0.2 101244
02:00−25всв1299100 0.2 101223
05:00−26св1299100 0.3 101328
08:00−29с129998 0.0 101423
11:00−26ссз119598 0.1 1014196
14:00−22ююз119085 0.0 1014280
17:00−21ю259388 0.0 1012316
20:00−23ю369499 0.0 1011177
12 марта, пт
пт1223:00−21ююз3892100 0.0 1010292
02:00−22ю389796 0.0 1008206
05:00−23ююз379688 0.0 1006154
08:00−21ююз379291 0.0 1005171
11:00−13юз398393 0.0 1003554
14:00−10зюз51180100 0.0 1002909
17:00−10зюз41183100 0.0 1001919
20:00−12зюз31286100 0.0 1002567
13 марта, сб
сб1323:00−10з41580100 0.0 1003550
02:00−10з51577100 0.0 1004566
05:00−10зюз41482100 0.0 1005516
08:00−11юз488697 0.0 1006155
11:00−5зюз4117553 0.0 1007918
14:00−3зюз511732 0.0 1009992
17:00−3зюз511745 0.0 1011588
20:00−7зюз4148011 0.0 1013508